User: anonymous   Login
Location: Avoca
(45.7167°N, 74.7000°W)
Time: 13:26:46
(UTC+00:00)
Language:

STARLINK-5281 - Orbit

View from above orbital plane
View from above orbital plane
View from above satellite
View from above satellite

Ground track
Ground track

The orbit data is extracted from the following two-line orbital elements,

1 54190C 22141AK  24109.45743056 -.00018608  00000+0 -11673-2 0  1096
2 54190  53.2161 212.8145 0001258  97.7883 295.6798 15.08844120    10
Epoch (UTC): 18 April 2024 10:58:42
Eccentricity: 0.0001258
inclination: 53.2161°
perigee height: 539 km
apogee height: 540 km
right ascension of ascending node: 212.8145°
argument of perigee: 97.7883°
revolutions per day: 15.08844120
mean anomaly at epoch: 295.6798°
orbit number at epoch: 1

The dashed part of the orbit path shows where the satellite is in the earth's shadow,  

DLR